Location: Dentlein
(49.1477°N, 10.4231°E)
Time: 21:47:16
(UTC+00:00)

ASTEX 1 - Pass Details

Date: 23 May 2024
Orbit: 715 x 740 km, 92.7° (Epoch: 14 June)

Event Time Altitude Azimuth Distance (km) Brightness Sun altitude
Rises 02:27:57 0° 159° (SSE) 3,150 6.4 -8.1°
Reaches altitude 10° 02:30:16 10° 155° (SSE) 2,228 5.7 -7.8°
Maximum altitude 02:35:04 55° 79° (E) 876 4.2 -7.3°
Drops below altitude 10° 02:39:52 10° 2° (N) 2,229 6.6 -6.7°
Sets 02:42:12 0° 358° (N) 3,150 7.3 -6.4°
